Location: Alphen
(52.1351°N, 4.6549°E)
Time: 01:07:57
(UTC+00:00)

Okean O Rocket - Pass Details

Date: 27 January 2021
Orbit: 622 x 645 km, 98.2° (Epoch: 27 February)

Event Time Altitude Azimuth Distance (km) Brightness Sun altitude
Rises 06:26:44 0° 15° (NNE) 2,930 5.0 -9.6°
Reaches altitude 10° 06:28:57 10° 16° (NNE) 2,015 4.2 -9.3°
Maximum altitude 06:33:20 85° 103° (ESE) 635 1.7 -8.6°
Drops below altitude 10° 06:37:40 10° 194° (SSW) 1,990 4.2 -8.0°
Sets 06:39:51 0° 195° (SSW) 2,891 5.1 -7.7°
